Simultaneous Nadir Overpasses (SNOs) Predictions

Prediction of SNOs near equator between AQUA and NPP Satellite Orbit:

Table of predicted SNOs near equator for the next 14.0 days since TLE Epoch: 2/3/2012
Index Date (AQUA) Time (AQUA) AQUA Lat,Lon Date (NPP) Time (NPP) NPP Lat,Lon Distance(km) Time Diff (sec)
1 02/04/2012 08:41:52 -4.98,-107.37 02/04/2012 08:32:13 -4.88,-107.69 37.24 579
2 02/04/2012 09:30:06 0.33, 61.24 02/04/2012 09:21:43 0.22, 60.64 67.47 503
3 02/04/2012 10:18:14 4.15,-130.15 02/04/2012 10:11:06 4.34,-131.01 97.50 428
4 02/07/2012 00:58:00 -3.51, 8.81 02/07/2012 00:48:45 -3.39, 8.39 48.09 555
5 02/07/2012 01:46:15 -1.08, 177.41 02/07/2012 01:38:16 -1.22, 176.72 78.36 479
6 02/09/2012 16:27:51 13.31, -45.10 02/09/2012 16:17:51 13.35, -45.45 38.26 600
7 02/09/2012 17:14:05 -1.94, 125.02 02/09/2012 17:05:16 -1.85, 124.49 59.40 529
8 02/09/2012 18:02:21 -2.59, -66.40 02/09/2012 17:54:47 -2.76, -67.19 89.57 454
9 02/12/2012 08:42:04 4.94, 72.59 02/12/2012 08:32:25 4.84, 72.24 40.74 579
10 02/12/2012 09:30:11 -0.39,-118.78 02/12/2012 09:21:48 -0.27,-119.41 71.15 503
11 02/15/2012 00:58:07 3.24,-171.17 02/15/2012 00:48:56 3.17,-171.64 52.93 551
12 02/15/2012 01:46:15 1.24, -2.56 02/15/2012 01:38:19 1.40, -3.29 83.29 476
13 02/17/2012 16:25:54 -6.09, 136.47 02/17/2012 16:15:56 -6.05, 136.16 35.20 598
14 02/17/2012 17:14:10 1.58, -54.94 02/17/2012 17:05:27 1.46, -55.52 65.57 523
15 02/17/2012 18:02:17 2.97, 113.69 02/17/2012 17:54:49 3.18, 112.85 95.79 448




NCC Satellite Simultaneous Nadir Overpasses (SNOs) Prediction Service
